Flight Information

DEPARTURE
MONTEREY, CA
Elevation:
256
Runways:
10R/28L - 7175x150 - ASPH-G
10L/28R - 3503x60 - ASPH-F
Active PE Departure:
28L - 28R
Current PE ATIS:
R
Altimeter:
30.07
Remarks:
V F R DEPARTURES CONTACT CLEARANCE DELIVERY, ADVISE ON COURSE HEADING, ALTITUDE, AND IF FLIGHT FOLLOWING IS REQUESTED.
ATIS:
119.25 831-375-7433
Clearance Delivery:
135.45
Ground:
120.875
Tower:
MONTEREY TOWER 118.4
DESTINATION
,
Elevation:
TPA:
1000 (est.)


6903.6 NM70° True-15° Var54° HDG

Flight Plan:
(click to file on line)

1. Type
2. Aircraft Identification
3. Aircraft Type / Special Equipment
4. True Airspeed
kts
5. Departure Airport
(ICAO code)
6. Arriving Airport
(ICAO code)
7. Cruising Altitude
ft
8. Alternate Airport
(ICAO code)
9. Route of Flight
10. Remarks


00:00:00 Departure ATIS: Destination ATIS:

Clearance Limit:
Route:
Altitude: Expect in minutes
Frequency:
Transponder: (7500 Hijack / 7600 Lost Comms / 7700 Emergency)


KMRY 012359Z 29007KT 4SM RA BR BKN009 OVC014 09/08 A2991 RMK AO2 P0001 T00940083
Time: 2022-12-01T23:59:00Z
1670650626
Winds: 290 @ 7 kts
Visibility: 4.0 sm
Clouds (AGL): BKN 900
OVC 1400
Temperature: 9.4 C
Dew Point: 8.3 C
Pressure: 29.911417 in Hgbr


Notes:

Data extracted from FAA Digital Chart Supplement. Effective: 0901Z Thursday, 27 JAN 2022 to 0900z Thursday, 24 MAR 2022
Current ATIS data is provided courtisy of PilotEdge.